iso_date,epoch_date,Year,Hour,Min,DOY,POS_DOY,Lat,Lon,BP,Ts,Ta,has_bp,has_ts,has_ta,BuoyID,Buoy_Type,Buoy_Owner,Logistics,Hemisphere
2017-09-28T00:00:00Z,1506556800,2017,0,0,271.0,271.0,56.1786,175.3186,1021.5,10.24,-999.0,yes,yes,no,300234062955610,BD2GI,AOML,WWD_OLYMPIA,North
2017-09-28T01:00:28Z,1506560429,2017,1,0,271.042,271.042,56.1812,175.3118,1021.5,10.23,-999.0,yes,yes,no,300234062955610,BD2GI,AOML,WWD_OLYMPIA,North
2017-09-28T01:59:31Z,1506563971,2017,2,0,271.083,271.083,56.1854,175.3092,1021.4,10.26,-999.0,yes,yes,no,300234062955610,BD2GI,AOML,WWD_OLYMPIA,North
2017-09-28T03:00:00Z,1506567600,2017,3,0,271.125,271.125,56.19,175.31,1021.3,10.26,-999.0,yes,yes,no,300234062955610,BD2GI,AOML,WWD_OLYMPIA,North
2017-09-28T04:00:28Z,1506571229,2017,4,0,271.167,271.167,56.1936,175.3142,1021.5,10.29,-999.0,yes,yes,no,300234062955610,BD2GI,AOML,WWD_OLYMPIA,North
2017-09-28T04:59:31Z,1506574771,2017,5,0,271.208,271.208,56.197,175.32,1021.8,10.22,-999.0,yes,yes,no,300234062955610,BD2GI,AOML,WWD_OLYMPIA,North
2017-09-28T06:00:00Z,1506578400,2017,6,0,271.25,271.25,56.1994,175.3258,1022.0,10.23,-999.0,yes,yes,no,300234062955610,BD2GI,AOML,WWD_OLYMPIA,North
2017-09-28T07:00:28Z,1506582029,2017,7,0,271.292,271.292,56.2004,175.333,1022.6,10.24,-999.0,yes,yes,no,300234062955610,BD2GI,AOML,WWD_OLYMPIA,North
2017-09-28T07:59:31Z,1506585571,2017,8,0,271.333,271.333,56.2,175.339,1023.0,10.23,-999.0,yes,yes,no,300234062955610,BD2GI,AOML,WWD_OLYMPIA,North
2017-09-28T09:00:00Z,1506589200,2017,9,0,271.375,271.375,56.2004,175.3438,1023.3,10.25,-999.0,yes,yes,no,300234062955610,BD2GI,AOML,WWD_OLYMPIA,North
2017-09-28T10:00:28Z,1506592829,2017,10,0,271.417,271.417,56.1998,175.346,1023.4,10.19,-999.0,yes,yes,no,300234062955610,BD2GI,AOML,WWD_OLYMPIA,North
2017-09-28T10:59:31Z,1506596371,2017,11,0,271.458,271.458,56.199,175.3456,1023.7,10.21,-999.0,yes,yes,no,300234062955610,BD2GI,AOML,WWD_OLYMPIA,North
2017-09-28T12:00:00Z,1506600000,2017,12,0,271.5,271.5,56.1992,175.345,1024.0,10.17,-999.0,yes,yes,no,300234062955610,BD2GI,AOML,WWD_OLYMPIA,North
2017-09-28T13:00:28Z,1506603629,2017,13,0,271.542,271.542,56.2002,175.3422,1024.1,10.26,-999.0,yes,yes,no,300234062955610,BD2GI,AOML,WWD_OLYMPIA,North
2017-09-29T00:00:00Z,1506643200,2017,0,0,272.0,272.0,56.2256,175.3644,1026.9,10.27,-999.0,yes,yes,no,300234062955610,BD2GI,AOML,WWD_OLYMPIA,North
2017-09-29T01:00:28Z,1506646829,2017,1,0,272.042,272.042,56.227,175.3582,1027.0,10.29,-999.0,yes,yes,no,300234062955610,BD2GI,AOML,WWD_OLYMPIA,North
2017-09-29T01:59:31Z,1506650371,2017,2,0,272.083,272.083,56.2298,175.354,1027.0,10.37,-999.0,yes,yes,no,300234062955610,BD2GI,AOML,WWD_OLYMPIA,North
2017-09-29T03:00:00Z,1506654000,2017,3,0,272.125,272.125,56.2344,175.3498,1027.2,10.38,-999.0,yes,yes,no,300234062955610,BD2GI,AOML,WWD_OLYMPIA,North
2017-09-29T04:00:28Z,1506657629,2017,4,0,272.167,272.167,56.241,175.3486,1027.2,10.3,-999.0,yes,yes,no,300234062955610,BD2GI,AOML,WWD_OLYMPIA,North
2017-09-29T04:59:31Z,1506661171,2017,5,0,272.208,272.208,56.2468,175.3502,1027.2,10.37,-999.0,yes,yes,no,300234062955610,BD2GI,AOML,WWD_OLYMPIA,North
2017-09-29T06:00:00Z,1506664800,2017,6,0,272.25,272.25,56.252,175.3528,1027.8,10.36,-999.0,yes,yes,no,300234062955610,BD2GI,AOML,WWD_OLYMPIA,North
2017-09-29T07:00:28Z,1506668429,2017,7,0,272.292,272.292,56.2552,175.3578,1027.8,10.3,-999.0,yes,yes,no,300234062955610,BD2GI,AOML,WWD_OLYMPIA,North
2017-09-29T07:59:31Z,1506671971,2017,8,0,272.333,272.333,56.2584,175.3642,1027.7,10.3,-999.0,yes,yes,no,300234062955610,BD2GI,AOML,WWD_OLYMPIA,North
2017-09-29T09:00:00Z,1506675600,2017,9,0,272.375,272.375,56.26,175.3698,1027.9,10.24,-999.0,yes,yes,no,300234062955610,BD2GI,AOML,WWD_OLYMPIA,North
2017-09-29T10:00:28Z,1506679229,2017,10,0,272.417,272.417,56.261,175.3744,1028.2,10.25,-999.0,yes,yes,no,300234062955610,BD2GI,AOML,WWD_OLYMPIA,North
2017-09-29T10:59:31Z,1506682771,2017,11,0,272.458,272.458,56.2606,175.3764,1028.4,10.3,-999.0,yes,yes,no,300234062955610,BD2GI,AOML,WWD_OLYMPIA,North
2017-09-29T12:00:00Z,1506686400,2017,12,0,272.5,272.5,56.2596,175.3746,1028.1,10.22,-999.0,yes,yes,no,300234062955610,BD2GI,AOML,WWD_OLYMPIA,North
2017-09-29T13:00:28Z,1506690029,2017,13,0,272.542,272.542,56.2598,175.371,1027.7,10.23,-999.0,yes,yes,no,300234062955610,BD2GI,AOML,WWD_OLYMPIA,North
2017-09-29T13:59:31Z,1506693571,2017,14,0,272.583,272.583,56.2624,175.3654,1026.7,10.25,-999.0,yes,yes,no,300234062955610,BD2GI,AOML,WWD_OLYMPIA,North
2017-09-29T15:00:00Z,1506697200,2017,15,0,272.625,272.625,56.267,175.3606,1026.7,10.27,-999.0,yes,yes,no,300234062955610,BD2GI,AOML,WWD_OLYMPIA,North
2017-09-29T16:00:28Z,1506700829,2017,16,0,272.667,272.667,56.2728,175.3578,1026.4,10.21,-999.0,yes,yes,no,300234062955610,BD2GI,AOML,WWD_OLYMPIA,North
2017-09-29T16:59:31Z,1506704371,2017,17,0,272.708,272.708,56.2792,175.3576,1026.1,10.21,-999.0,yes,yes,no,300234062955610,BD2GI,AOML,WWD_OLYMPIA,North
2017-09-29T18:00:00Z,1506708000,2017,18,0,272.75,272.75,56.2858,175.3596,1025.4,10.23,-999.0,yes,yes,no,300234062955610,BD2GI,AOML,WWD_OLYMPIA,North
2017-09-29T19:00:28Z,1506711629,2017,19,0,272.792,272.792,56.2914,175.3626,1024.9,10.25,-999.0,yes,yes,no,300234062955610,BD2GI,AOML,WWD_OLYMPIA,North
2017-09-29T19:59:31Z,1506715171,2017,20,0,272.833,272.833,56.2956,175.3684,1024.8,10.24,-999.0,yes,yes,no,300234062955610,BD2GI,AOML,WWD_OLYMPIA,North
2017-09-29T21:00:00Z,1506718800,2017,21,0,272.875,272.875,56.2982,175.3764,1024.5,10.24,-999.0,yes,yes,no,300234062955610,BD2GI,AOML,WWD_OLYMPIA,North
2017-09-29T22:00:28Z,1506722429,2017,22,0,272.917,272.917,56.3002,175.385,1024.2,10.18,-999.0,yes,yes,no,300234062955610,BD2GI,AOML,WWD_OLYMPIA,North
2017-09-29T22:59:31Z,1506725971,2017,23,0,272.958,272.958,56.3012,175.3892,1023.5,10.21,-999.0,yes,yes,no,300234062955610,BD2GI,AOML,WWD_OLYMPIA,North
2017-09-30T00:00:00Z,1506729600,2017,0,0,273.0,273.0,56.3024,175.389,1022.7,10.18,-999.0,yes,yes,no,300234062955610,BD2GI,AOML,WWD_OLYMPIA,North
2017-09-30T01:00:28Z,1506733229,2017,1,0,273.042,273.042,56.304,175.3892,1022.0,10.19,-999.0,yes,yes,no,300234062955610,BD2GI,AOML,WWD_OLYMPIA,North
2017-09-30T01:59:31Z,1506736771,2017,2,0,273.083,273.083,56.3066,175.3892,1021.4,10.25,-999.0,yes,yes,no,300234062955610,BD2GI,AOML,WWD_OLYMPIA,North
2017-09-30T03:00:00Z,1506740400,2017,3,0,273.125,273.125,56.3106,175.3868,1020.7,10.19,-999.0,yes,yes,no,300234062955610,BD2GI,AOML,WWD_OLYMPIA,North
2017-09-30T04:00:28Z,1506744029,2017,4,0,273.167,273.167,56.316,175.3866,1020.2,10.25,-999.0,yes,yes,no,300234062955610,BD2GI,AOML,WWD_OLYMPIA,North
2017-09-30T04:59:31Z,1506747571,2017,5,0,273.208,273.208,56.3216,175.3866,1020.0,10.18,-999.0,yes,yes,no,300234062955610,BD2GI,AOML,WWD_OLYMPIA,North
2017-09-30T06:00:00Z,1506751200,2017,6,0,273.25,273.25,56.3288,175.3912,1019.3,10.19,-999.0,yes,yes,no,300234062955610,BD2GI,AOML,WWD_OLYMPIA,North
2017-09-30T07:00:28Z,1506754829,2017,7,0,273.292,273.292,56.3364,175.3972,1018.9,10.19,-999.0,yes,yes,no,300234062955610,BD2GI,AOML,WWD_OLYMPIA,North
2017-09-30T07:59:31Z,1506758371,2017,8,0,273.333,273.333,56.3408,175.407,1018.4,10.15,-999.0,yes,yes,no,300234062955610,BD2GI,AOML,WWD_OLYMPIA,North
2017-09-30T09:00:00Z,1506762000,2017,9,0,273.375,273.375,56.3424,175.418,1017.7,10.24,-999.0,yes,yes,no,300234062955610,BD2GI,AOML,WWD_OLYMPIA,North
2017-09-30T10:00:28Z,1506765629,2017,10,0,273.417,273.417,56.3418,175.4262,1016.8,10.2,-999.0,yes,yes,no,300234062955610,BD2GI,AOML,WWD_OLYMPIA,North
2017-09-30T10:59:31Z,1506769171,2017,11,0,273.458,273.458,56.341,175.43,1015.5,10.23,-999.0,yes,yes,no,300234062955610,BD2GI,AOML,WWD_OLYMPIA,North
2017-09-30T12:00:00Z,1506772800,2017,12,0,273.5,273.5,56.3416,175.4296,1014.5,10.15,-999.0,yes,yes,no,300234062955610,BD2GI,AOML,WWD_OLYMPIA,North
2017-09-30T13:00:28Z,1506776429,2017,13,0,273.542,273.542,56.3448,175.426,1013.2,10.22,-999.0,yes,yes,no,300234062955610,BD2GI,AOML,WWD_OLYMPIA,North
2017-09-30T13:59:31Z,1506779971,2017,14,0,273.583,273.583,56.3508,175.4234,1011.6,10.14,-999.0,yes,yes,no,300234062955610,BD2GI,AOML,WWD_OLYMPIA,North
2017-09-30T15:00:00Z,1506783600,2017,15,0,273.625,273.625,56.3592,175.4216,1009.4,10.21,-999.0,yes,yes,no,300234062955610,BD2GI,AOML,WWD_OLYMPIA,North
2017-09-30T16:00:28Z,1506787229,2017,16,0,273.667,273.667,56.3706,175.4228,1008.0,10.2,-999.0,yes,yes,no,300234062955610,BD2GI,AOML,WWD_OLYMPIA,North
2017-09-30T16:59:31Z,1506790771,2017,17,0,273.708,273.708,56.383,175.4276,1006.2,10.12,-999.0,yes,yes,no,300234062955610,BD2GI,AOML,WWD_OLYMPIA,North
2017-09-30T18:00:00Z,1506794400,2017,18,0,273.75,273.75,56.383,175.4276,1005.1,10.09,-999.0,yes,yes,no,300234062955610,BD2GI,AOML,WWD_OLYMPIA,North
2017-09-30T19:00:28Z,1506798029,2017,19,0,273.792,273.792,56.4088,175.4544,1004.4,10.12,-999.0,yes,yes,no,300234062955610,BD2GI,AOML,WWD_OLYMPIA,North
2017-09-30T19:59:31Z,1506801571,2017,20,0,273.833,273.833,56.417,175.4762,1004.0,10.08,-999.0,yes,yes,no,300234062955610,BD2GI,AOML,WWD_OLYMPIA,North
2017-09-30T21:00:00Z,1506805200,2017,21,0,273.875,273.875,56.4208,175.5008,1004.3,10.07,-999.0,yes,yes,no,300234062955610,BD2GI,AOML,WWD_OLYMPIA,North
2017-09-30T22:00:28Z,1506808829,2017,22,0,273.917,273.917,56.4194,175.5276,1005.2,10.11,-999.0,yes,yes,no,300234062955610,BD2GI,AOML,WWD_OLYMPIA,North
2017-09-30T22:59:31Z,1506812371,2017,23,0,273.958,273.958,56.4114,175.5484,1006.1,10.07,-999.0,yes,yes,no,300234062955610,BD2GI,AOML,WWD_OLYMPIA,North
2017-10-01T00:00:00Z,1506816000,2017,0,0,274.0,274.0,56.3996,175.559,1006.6,10.12,-999.0,yes,yes,no,300234062955610,BD2GI,AOML,WWD_OLYMPIA,North
2017-10-01T01:00:28Z,1506819629,2017,1,0,274.042,274.042,56.387,175.5578,1007.2,10.09,-999.0,yes,yes,no,300234062955610,BD2GI,AOML,WWD_OLYMPIA,North
2017-10-01T01:59:31Z,1506823171,2017,2,0,274.083,274.083,56.3754,175.5412,1007.6,10.12,-999.0,yes,yes,no,300234062955610,BD2GI,AOML,WWD_OLYMPIA,North
2017-10-01T03:00:00Z,1506826800,2017,3,0,274.125,274.125,56.3692,175.516,1007.7,10.15,-999.0,yes,yes,no,300234062955610,BD2GI,AOML,WWD_OLYMPIA,North
2017-10-01T04:00:28Z,1506830429,2017,4,0,274.167,274.167,56.3698,175.4892,1007.6,10.09,-999.0,yes,yes,no,300234062955610,BD2GI,AOML,WWD_OLYMPIA,North
2017-10-01T07:59:31Z,1506844771,2017,8,0,274.333,274.333,56.4238,175.4434,1008.1,10.09,-999.0,yes,yes,no,300234062955610,BD2GI,AOML,WWD_OLYMPIA,North
2017-10-01T09:00:00Z,1506848400,2017,9,0,274.375,274.375,56.4378,175.459,1007.7,10.09,-999.0,yes,yes,no,300234062955610,BD2GI,AOML,WWD_OLYMPIA,North
2017-10-01T10:00:28Z,1506852029,2017,10,0,274.417,274.417,56.4466,175.4804,1007.6,10.11,-999.0,yes,yes,no,300234062955610,BD2GI,AOML,WWD_OLYMPIA,North
2017-10-01T10:59:31Z,1506855571,2017,11,0,274.458,274.458,56.4484,175.5052,1007.0,10.08,-999.0,yes,yes,no,300234062955610,BD2GI,AOML,WWD_OLYMPIA,North
2017-10-01T12:00:00Z,1506859200,2017,12,0,274.5,274.5,56.445,175.5284,1006.5,10.05,-999.0,yes,yes,no,300234062955610,BD2GI,AOML,WWD_OLYMPIA,North
2017-10-01T13:00:28Z,1506862829,2017,13,0,274.542,274.542,56.4376,175.5458,1006.0,10.09,-999.0,yes,yes,no,300234062955610,BD2GI,AOML,WWD_OLYMPIA,North
2017-10-01T13:59:31Z,1506866371,2017,14,0,274.583,274.583,56.4262,175.552,1005.3,10.07,-999.0,yes,yes,no,300234062955610,BD2GI,AOML,WWD_OLYMPIA,North
2017-10-01T15:00:00Z,1506870000,2017,15,0,274.625,274.625,56.4154,175.5446,1004.8,10.05,-999.0,yes,yes,no,300234062955610,BD2GI,AOML,WWD_OLYMPIA,North
2017-10-01T16:00:28Z,1506873629,2017,16,0,274.667,274.667,56.408,175.5302,1004.2,10.08,-999.0,yes,yes,no,300234062955610,BD2GI,AOML,WWD_OLYMPIA,North
2017-10-01T16:59:31Z,1506877171,2017,17,0,274.708,274.708,56.4044,175.51,1003.9,10.07,-999.0,yes,yes,no,300234062955610,BD2GI,AOML,WWD_OLYMPIA,North
2017-10-01T18:00:00Z,1506880800,2017,18,0,274.75,274.75,56.4064,175.488,1003.8,10.05,-999.0,yes,yes,no,300234062955610,BD2GI,AOML,WWD_OLYMPIA,North
2017-10-01T19:00:28Z,1506884429,2017,19,0,274.792,274.792,56.4146,175.4658,1003.8,10.02,-999.0,yes,yes,no,300234062955610,BD2GI,AOML,WWD_OLYMPIA,North
2017-10-01T19:59:31Z,1506887971,2017,20,0,274.833,274.833,56.4264,175.452,1003.5,10.02,-999.0,yes,yes,no,300234062955610,BD2GI,AOML,WWD_OLYMPIA,North
2017-10-01T21:00:00Z,1506891600,2017,21,0,274.875,274.875,56.4402,175.446,1003.3,10.03,-999.0,yes,yes,no,300234062955610,BD2GI,AOML,WWD_OLYMPIA,North
2017-10-01T22:00:28Z,1506895229,2017,22,0,274.917,274.917,56.4544,175.4522,1003.1,10.06,-999.0,yes,yes,no,300234062955610,BD2GI,AOML,WWD_OLYMPIA,North
2017-10-01T22:59:31Z,1506898771,2017,23,0,274.958,274.958,56.4646,175.468,1002.8,10.04,-999.0,yes,yes,no,300234062955610,BD2GI,AOML,WWD_OLYMPIA,North
2017-10-02T00:00:00Z,1506902400,2017,0,0,275.0,275.0,56.4708,175.4888,1002.3,10.04,-999.0,yes,yes,no,300234062955610,BD2GI,AOML,WWD_OLYMPIA,North
2017-10-02T01:00:28Z,1506906029,2017,1,0,275.042,275.042,56.471,175.5106,1002.2,10.05,-999.0,yes,yes,no,300234062955610,BD2GI,AOML,WWD_OLYMPIA,North
2017-10-02T01:59:31Z,1506909571,2017,2,0,275.083,275.083,56.4662,175.5282,1002.3,10.12,-999.0,yes,yes,no,300234062955610,BD2GI,AOML,WWD_OLYMPIA,North
2017-10-02T03:00:00Z,1506913200,2017,3,0,275.125,275.125,56.4568,175.5388,1002.6,10.1,-999.0,yes,yes,no,300234062955610,BD2GI,AOML,WWD_OLYMPIA,North
2017-10-02T04:00:28Z,1506916829,2017,4,0,275.167,275.167,56.447,175.5412,1002.8,10.11,-999.0,yes,yes,no,300234062955610,BD2GI,AOML,WWD_OLYMPIA,North
2017-10-02T04:59:31Z,1506920371,2017,5,0,275.208,275.208,56.4372,175.5342,1003.3,10.08,-999.0,yes,yes,no,300234062955610,BD2GI,AOML,WWD_OLYMPIA,North
2017-10-02T06:00:00Z,1506924000,2017,6,0,275.25,275.25,56.4294,175.5214,1003.5,10.03,-999.0,yes,yes,no,300234062955610,BD2GI,AOML,WWD_OLYMPIA,North
2017-10-02T07:00:28Z,1506927629,2017,7,0,275.292,275.292,56.4262,175.5028,1004.4,10.07,-999.0,yes,yes,no,300234062955610,BD2GI,AOML,WWD_OLYMPIA,North
2017-10-02T07:59:31Z,1506931171,2017,8,0,275.333,275.333,56.427,175.4836,1004.7,10.01,-999.0,yes,yes,no,300234062955610,BD2GI,AOML,WWD_OLYMPIA,North
2017-10-02T09:00:00Z,1506934800,2017,9,0,275.375,275.375,56.4316,175.4656,1005.2,10.02,-999.0,yes,yes,no,300234062955610,BD2GI,AOML,WWD_OLYMPIA,North
2017-10-02T10:00:28Z,1506938429,2017,10,0,275.417,275.417,56.44,175.4522,1005.3,10.03,-999.0,yes,yes,no,300234062955610,BD2GI,AOML,WWD_OLYMPIA,North
2017-10-02T10:59:31Z,1506941971,2017,11,0,275.458,275.458,56.4508,175.4478,1005.9,9.96,-999.0,yes,yes,no,300234062955610,BD2GI,AOML,WWD_OLYMPIA,North
2017-10-02T12:00:00Z,1506945600,2017,12,0,275.5,275.5,56.4604,175.4516,1005.8,9.98,-999.0,yes,yes,no,300234062955610,BD2GI,AOML,WWD_OLYMPIA,North
2017-10-02T13:00:28Z,1506949229,2017,13,0,275.542,275.542,56.468,175.4628,1006.1,9.99,-999.0,yes,yes,no,300234062955610,BD2GI,AOML,WWD_OLYMPIA,North
2017-10-02T13:59:31Z,1506952771,2017,14,0,275.583,275.583,56.4714,175.4764,1006.1,9.99,-999.0,yes,yes,no,300234062955610,BD2GI,AOML,WWD_OLYMPIA,North
2017-10-02T15:00:00Z,1506956400,2017,15,0,275.625,275.625,56.4722,175.4912,1006.3,9.99,-999.0,yes,yes,no,300234062955610,BD2GI,AOML,WWD_OLYMPIA,North
2017-10-02T16:00:28Z,1506960029,2017,16,0,275.667,275.667,56.47,175.5048,1006.1,9.98,-999.0,yes,yes,no,300234062955610,BD2GI,AOML,WWD_OLYMPIA,North
2017-10-02T16:59:31Z,1506963571,2017,17,0,275.708,275.708,56.4656,175.5134,1006.2,9.92,-999.0,yes,yes,no,300234062955610,BD2GI,AOML,WWD_OLYMPIA,North
2017-10-02T18:00:00Z,1506967200,2017,18,0,275.75,275.75,56.4602,175.5152,1006.0,9.97,-999.0,yes,yes,no,300234062955610,BD2GI,AOML,WWD_OLYMPIA,North
2017-10-02T19:00:28Z,1506970829,2017,19,0,275.792,275.792,56.4558,175.5116,1005.5,9.89,-999.0,yes,yes,no,300234062955610,BD2GI,AOML,WWD_OLYMPIA,North
2017-10-02T19:59:31Z,1506974371,2017,20,0,275.833,275.833,56.4522,175.5048,1004.9,9.91,-999.0,yes,yes,no,300234062955610,BD2GI,AOML,WWD_OLYMPIA,North
2017-10-02T21:00:00Z,1506978000,2017,21,0,275.875,275.875,56.4504,175.4932,1004.2,9.86,-999.0,yes,yes,no,300234062955610,BD2GI,AOML,WWD_OLYMPIA,North
2017-10-02T22:00:28Z,1506981629,2017,22,0,275.917,275.917,56.452,175.48,1003.5,9.95,-999.0,yes,yes,no,300234062955610,BD2GI,AOML,WWD_OLYMPIA,North
2017-10-02T22:59:31Z,1506985171,2017,23,0,275.958,275.958,56.4574,175.4698,1002.1,9.93,-999.0,yes,yes,no,300234062955610,BD2GI,AOML,WWD_OLYMPIA,North
2017-10-03T00:00:00Z,1506988800,2017,0,0,276.0,276.0,56.4658,175.4634,1000.1,9.92,-999.0,yes,yes,no,300234062955610,BD2GI,AOML,WWD_OLYMPIA,North
2017-10-03T01:00:28Z,1506992429,2017,1,0,276.042,276.042,56.4762,175.4578,998.2,9.9,-999.0,yes,yes,no,300234062955610,BD2GI,AOML,WWD_OLYMPIA,North
2017-10-03T03:00:00Z,1506999600,2017,3,0,276.125,276.125,56.4986,175.4668,995.2,9.93,-999.0,yes,yes,no,300234062955610,BD2GI,AOML,WWD_OLYMPIA,North
2017-10-03T10:59:31Z,1507028371,2017,11,0,276.458,276.458,56.482,175.5384,996.8,9.9,-999.0,yes,yes,no,300234062955610,BD2GI,AOML,WWD_OLYMPIA,North
2017-10-03T12:00:00Z,1507032000,2017,12,0,276.5,276.5,56.4776,175.523,997.4,9.87,-999.0,yes,yes,no,300234062955610,BD2GI,AOML,WWD_OLYMPIA,North
2017-10-03T13:00:28Z,1507035629,2017,13,0,276.542,276.542,56.4778,175.5064,997.3,9.9,-999.0,yes,yes,no,300234062955610,BD2GI,AOML,WWD_OLYMPIA,North
2017-10-03T13:59:31Z,1507039171,2017,14,0,276.583,276.583,56.4832,175.4878,997.9,9.85,-999.0,yes,yes,no,300234062955610,BD2GI,AOML,WWD_OLYMPIA,North
2017-10-03T15:00:00Z,1507042800,2017,15,0,276.625,276.625,56.4916,175.473,998.0,9.86,-999.0,yes,yes,no,300234062955610,BD2GI,AOML,WWD_OLYMPIA,North
2017-10-03T16:00:28Z,1507046429,2017,16,0,276.667,276.667,56.5032,175.466,998.1,9.87,-999.0,yes,yes,no,300234062955610,BD2GI,AOML,WWD_OLYMPIA,North
2017-10-03T16:59:31Z,1507049971,2017,17,0,276.708,276.708,56.5158,175.4676,998.2,9.84,-999.0,yes,yes,no,300234062955610,BD2GI,AOML,WWD_OLYMPIA,North
2017-10-03T18:00:00Z,1507053600,2017,18,0,276.75,276.75,56.5268,175.4776,998.2,9.86,-999.0,yes,yes,no,300234062955610,BD2GI,AOML,WWD_OLYMPIA,North
2017-10-03T19:00:28Z,1507057229,2017,19,0,276.792,276.792,56.5352,175.4936,998.4,9.86,-999.0,yes,yes,no,300234062955610,BD2GI,AOML,WWD_OLYMPIA,North
2017-10-03T19:59:31Z,1507060771,2017,20,0,276.833,276.833,56.5398,175.512,998.2,9.83,-999.0,yes,yes,no,300234062955610,BD2GI,AOML,WWD_OLYMPIA,North
2017-10-03T21:00:00Z,1507064400,2017,21,0,276.875,276.875,56.5394,175.5318,998.3,9.88,-999.0,yes,yes,no,300234062955610,BD2GI,AOML,WWD_OLYMPIA,North
2017-10-03T22:00:28Z,1507068029,2017,22,0,276.917,276.917,56.5354,175.5492,997.7,9.87,-999.0,yes,yes,no,300234062955610,BD2GI,AOML,WWD_OLYMPIA,North
2017-10-03T22:59:31Z,1507071571,2017,23,0,276.958,276.958,56.527,175.559,996.8,9.88,-999.0,yes,yes,no,300234062955610,BD2GI,AOML,WWD_OLYMPIA,North
2017-10-04T00:00:00Z,1507075200,2017,0,0,277.0,277.0,56.517,175.5594,995.9,9.88,-999.0,yes,yes,no,300234062955610,BD2GI,AOML,WWD_OLYMPIA,North
2017-10-04T01:00:28Z,1507078829,2017,1,0,277.042,277.042,56.509,175.5504,995.5,9.9,-999.0,yes,yes,no,300234062955610,BD2GI,AOML,WWD_OLYMPIA,North
2017-10-04T01:59:31Z,1507082371,2017,2,0,277.083,277.083,56.5044,175.5362,993.8,9.88,-999.0,yes,yes,no,300234062955610,BD2GI,AOML,WWD_OLYMPIA,North
2017-10-04T03:00:00Z,1507086000,2017,3,0,277.125,277.125,56.504,175.518,991.9,9.89,-999.0,yes,yes,no,300234062955610,BD2GI,AOML,WWD_OLYMPIA,North
2017-10-04T04:00:28Z,1507089629,2017,4,0,277.167,277.167,56.5082,175.4966,989.9,9.88,-999.0,yes,yes,no,300234062955610,BD2GI,AOML,WWD_OLYMPIA,North
2017-10-04T04:59:31Z,1507093171,2017,5,0,277.208,277.208,56.5178,175.4776,987.7,9.89,-999.0,yes,yes,no,300234062955610,BD2GI,AOML,WWD_OLYMPIA,North
2017-10-04T06:00:00Z,1507096800,2017,6,0,277.25,277.25,56.5304,175.464,985.4,9.89,-999.0,yes,yes,no,300234062955610,BD2GI,AOML,WWD_OLYMPIA,North
2017-10-04T07:00:28Z,1507100429,2017,7,0,277.292,277.292,56.5452,175.4594,983.3,9.88,-999.0,yes,yes,no,300234062955610,BD2GI,AOML,WWD_OLYMPIA,North
2017-10-04T07:59:31Z,1507103971,2017,8,0,277.333,277.333,56.5606,175.467,981.9,9.84,-999.0,yes,yes,no,300234062955610,BD2GI,AOML,WWD_OLYMPIA,North
2017-10-04T09:00:00Z,1507107600,2017,9,0,277.375,277.375,56.573,175.4842,980.3,9.86,-999.0,yes,yes,no,300234062955610,BD2GI,AOML,WWD_OLYMPIA,North
2017-10-04T10:00:28Z,1507111229,2017,10,0,277.417,277.417,56.5806,175.5088,978.5,9.85,-999.0,yes,yes,no,300234062955610,BD2GI,AOML,WWD_OLYMPIA,North
2017-10-04T10:59:31Z,1507114771,2017,11,0,277.458,277.458,56.5808,175.5342,977.2,9.9,-999.0,yes,yes,no,300234062955610,BD2GI,AOML,WWD_OLYMPIA,North
2017-10-04T12:00:00Z,1507118400,2017,12,0,277.5,277.5,56.5748,175.5546,975.9,9.88,-999.0,yes,yes,no,300234062955610,BD2GI,AOML,WWD_OLYMPIA,North
2017-10-04T13:00:28Z,1507122029,2017,13,0,277.542,277.542,56.5646,175.5662,975.1,9.86,-999.0,yes,yes,no,300234062955610,BD2GI,AOML,WWD_OLYMPIA,North
2017-10-04T13:59:31Z,1507125571,2017,14,0,277.583,277.583,56.5536,175.5676,975.1,9.87,-999.0,yes,yes,no,300234062955610,BD2GI,AOML,WWD_OLYMPIA,North
2017-10-04T15:00:00Z,1507129200,2017,15,0,277.625,277.625,56.5432,175.5632,976.0,9.86,-999.0,yes,yes,no,300234062955610,BD2GI,AOML,WWD_OLYMPIA,North
2017-10-04T16:00:28Z,1507132829,2017,16,0,277.667,277.667,56.5342,175.549,976.2,9.88,-999.0,yes,yes,no,300234062955610,BD2GI,AOML,WWD_OLYMPIA,North
2017-10-04T16:59:31Z,1507136371,2017,17,0,277.708,277.708,56.53,175.5296,976.5,9.85,-999.0,yes,yes,no,300234062955610,BD2GI,AOML,WWD_OLYMPIA,North
2017-10-04T18:00:00Z,1507140000,2017,18,0,277.75,277.75,56.5322,175.5072,976.9,9.8,-999.0,yes,yes,no,300234062955610,BD2GI,AOML,WWD_OLYMPIA,North
2017-10-04T19:00:28Z,1507143629,2017,19,0,277.792,277.792,56.5322,175.5072,977.0,9.82,-999.0,yes,yes,no,300234062955610,BD2GI,AOML,WWD_OLYMPIA,North
2017-10-04T19:59:31Z,1507147171,2017,20,0,277.833,277.833,56.55,175.4792,977.4,9.78,-999.0,yes,yes,no,300234062955610,BD2GI,AOML,WWD_OLYMPIA,North
2017-10-04T21:00:00Z,1507150800,2017,21,0,277.875,277.875,56.5618,175.481,978.6,9.82,-999.0,yes,yes,no,300234062955610,BD2GI,AOML,WWD_OLYMPIA,North
2017-10-04T22:00:28Z,1507154429,2017,22,0,277.917,277.917,56.573,175.4934,980.0,9.81,-999.0,yes,yes,no,300234062955610,BD2GI,AOML,WWD_OLYMPIA,North
2017-10-04T22:59:31Z,1507157971,2017,23,0,277.958,277.958,56.5788,175.515,981.7,9.79,-999.0,yes,yes,no,300234062955610,BD2GI,AOML,WWD_OLYMPIA,North
2017-10-05T00:00:00Z,1507161600,2017,0,0,278.0,278.0,56.5774,175.5446,983.6,9.8,-999.0,yes,yes,no,300234062955610,BD2GI,AOML,WWD_OLYMPIA,North
2017-10-05T01:00:28Z,1507165229,2017,1,0,278.042,278.042,56.5682,175.5742,985.2,9.71,-999.0,yes,yes,no,300234062955610,BD2GI,AOML,WWD_OLYMPIA,North
2017-10-05T01:59:31Z,1507168771,2017,2,0,278.083,278.083,56.5532,175.596,986.7,9.69,-999.0,yes,yes,no,300234062955610,BD2GI,AOML,WWD_OLYMPIA,North
2017-10-05T03:00:00Z,1507172400,2017,3,0,278.125,278.125,56.5338,175.6042,988.5,9.65,-999.0,yes,yes,no,300234062955610,BD2GI,AOML,WWD_OLYMPIA,North
2017-10-05T04:00:28Z,1507176029,2017,4,0,278.167,278.167,56.5138,175.6008,990.3,9.62,-999.0,yes,yes,no,300234062955610,BD2GI,AOML,WWD_OLYMPIA,North
2017-10-05T04:59:31Z,1507179571,2017,5,0,278.208,278.208,56.4968,175.5854,991.9,9.48,-999.0,yes,yes,no,300234062955610,BD2GI,AOML,WWD_OLYMPIA,North
2017-10-05T06:00:00Z,1507183200,2017,6,0,278.25,278.25,56.487,175.5622,993.3,9.47,-999.0,yes,yes,no,300234062955610,BD2GI,AOML,WWD_OLYMPIA,North
2017-10-05T13:00:28Z,1507208429,2017,13,0,278.542,278.542,56.5368,175.5128,1002.7,9.37,-999.0,yes,yes,no,300234062955610,BD2GI,AOML,WWD_OLYMPIA,North
2017-10-05T13:59:31Z,1507211971,2017,14,0,278.583,278.583,56.5374,175.5366,1003.8,9.35,-999.0,yes,yes,no,300234062955610,BD2GI,AOML,WWD_OLYMPIA,North
2017-10-05T15:00:00Z,1507215600,2017,15,0,278.625,278.625,56.531,175.5612,1005.1,9.35,-999.0,yes,yes,no,300234062955610,BD2GI,AOML,WWD_OLYMPIA,North
2017-10-05T16:00:28Z,1507219229,2017,16,0,278.667,278.667,56.5192,175.5776,1006.2,9.34,-999.0,yes,yes,no,300234062955610,BD2GI,AOML,WWD_OLYMPIA,North
2017-10-05T16:59:31Z,1507222771,2017,17,0,278.708,278.708,56.504,175.5814,1007.3,9.32,-999.0,yes,yes,no,300234062955610,BD2GI,AOML,WWD_OLYMPIA,North
2017-10-05T18:00:00Z,1507226400,2017,18,0,278.75,278.75,56.49,175.5726,1008.5,9.31,-999.0,yes,yes,no,300234062955610,BD2GI,AOML,WWD_OLYMPIA,North